User: anonymous
Location: Maiden_LMO
(35.5760°N, 81.2120°W)
Time: 04:36:00
(UTC-04:00)
Language:

ADEOS II - Orbit

View from above orbital plane
View from above orbital plane
View from above satellite
View from above satellite

Ground track
Ground track

The orbit data is extracted from the following two-line orbital elements,

1 27597U 02056A   14212.69600184  .00000192  00000-0  95899-4 0  3582
2 27597 098.2755 218.2197 0001752 138.3671 351.9574 14.26832008605449
Epoch (UTC): 31 July 2014 16:42:14
Eccentricity: 0.0001752
inclination: 98.2755°
perigee height: 801 km
apogee height: 803 km
right ascension of ascending node: 218.2197°
argument of perigee: 138.3671°
revolutions per day: 14.26832008
mean anomaly at epoch: 351.9574°
orbit number at epoch: 60544

The dashed part of the orbit path shows where the satellite is in the earth's shadow,  

DLR